| time (UTC) | temp F | wind direction | speed MPH | gust MPH | rain 1hr in | rain 24hr in | rain mn in | humidity % | barometer mb |
| 20260504221528 | 59 | 179 | 2.0 | 5.0 | 0.00 | 0.02 | 0.02 | 61 | 1005.3 |
| 20260504220028 | 61 | 281 | 3.0 | 14.0 | 0.00 | 0.02 | 0.02 | 56 | 1005.1 |
| 20260504214528 | 62 | 218 | 2.0 | 6.0 | 0.00 | 0.02 | 0.02 | 56 | 1004.9 |
| 20260504213026 | 62 | 250 | 1.0 | 8.0 | 0.00 | 0.02 | 0.02 | 59 | 1004.9 |
| 20260504211525 | 62 | 251 | 2.0 | 8.0 | 0.00 | 0.02 | 0.02 | 59 | 1005.0 |
| 20260504210024 | 61 | 217 | 1.0 | 10.0 | 0.00 | 0.02 | 0.02 | 60 | 1004.9 |
| 20260504204525 | 62 | 272 | 5.0 | 11.0 | 0.00 | 0.02 | 0.02 | 57 | 1004.8 |
| 20260504203027 | 61 | 10 | 3.0 | 12.0 | 0.00 | 0.02 | 0.02 | 59 | 1004.8 |
| 20260504201519 | 60 | 265 | 3.0 | 9.0 | 0.00 | 0.02 | 0.02 | 59 | 1004.8 |
| 20260504200019 | 59 | 211 | 2.0 | 8.0 | 0.00 | 0.02 | 0.02 | 63 | 1004.9 |
| 20260504194517 | 60 | 231 | 1.0 | 10.0 | 0.00 | 0.03 | 0.02 | 66 | 1004.8 |
| 20260504193013 | 58 | 161 | 2.0 | 7.0 | 0.00 | 0.03 | 0.02 | 71 | 1004.9 |
| 20260504191509 | 54 | 229 | 2.0 | 7.0 | 0.01 | 0.03 | 0.02 | 77 | 1005.2 |
| 20260504190009 | 53 | 248 | 4.0 | 9.0 | 0.02 | 0.03 | 0.02 | 76 | 1005.4 |
| 20260504184508 | 52 | 194 | 1.0 | 7.0 | 0.02 | 0.06 | 0.02 | 78 | 1005.7 |
| 20260504183007 | 53 | 257 | 3.0 | 9.0 | 0.02 | 0.06 | 0.02 | 76 | 1005.9 |
| 20260504181507 | 54 | 213 | 2.0 | 8.0 | 0.01 | 0.05 | 0.01 | 71 | 1005.9 |
| 20260504180009 | 55 | 242 | 4.0 | 9.0 | 0.00 | 0.11 | 0.00 | 67 | 1005.7 |
| 20260504174506 | 53 | 257 | 1.0 | 6.0 | 0.00 | 0.11 | 0.00 | 72 | 1005.5 |
| 20260504173005 | 49 | 203 | 0.0 | 9.0 | 0.00 | 0.11 | 0.00 | 77 | 1005.5 |
| 20260504171505 | 51 | 153 | 5.0 | 10.0 | 0.00 | 0.11 | 0.00 | 73 | 1005.2 |
| 20260504081548 | 31 | 300 | 0.0 | 3.0 | 0.00 | 0.83 | 0.00 | 91 | 1006.6 |
| 20260504050015 | 34 | 292 | 0.0 | 7.0 | 0.00 | 0.94 | 0.00 | 84 | 1005.2 |
| 20260504044511 | 35 | 304 | 0.0 | 5.0 | 0.00 | 0.94 | 0.00 | 82 | 1005.1 |
| 20260504043007 | 37 | 306 | 0.0 | 7.0 | 0.00 | 0.94 | 0.00 | 79 | 1005.0 |
| 20260504041504 | 37 | 315 | 0.0 | 8.0 | 0.00 | 0.94 | 0.00 | 78 | 1004.9 |
| 20260504040001 | 38 | 266 | 2.0 | 9.0 | 0.00 | 0.94 | 0.94 | 76 | 1004.7 |
| 20260504034600 | 38 | 337 | 3.0 | 8.0 | 0.00 | 0.94 | 0.94 | 74 | 1004.5 |
| 20260504033059 | 39 | 318 | 3.0 | 8.0 | 0.00 | 0.94 | 0.94 | 74 | 1004.3 |
| 20260504031558 | 38 | 318 | 1.0 | 7.0 | 0.00 | 0.94 | 0.94 | 77 | 1004.2 |
| 20260504030056 | 38 | 279 | 1.0 | 8.0 | 0.00 | 0.94 | 0.94 | 78 | 1004.0 |
| 20260504024614 | 38 | 355 | 1.0 | 10.0 | 0.00 | 0.94 | 0.94 | 78 | 1003.8 |
| 20260504023055 | 38 | 273 | 1.0 | 8.0 | 0.00 | 0.94 | 0.94 | 81 | 1003.9 |
| 20260504021552 | 38 | 318 | 2.0 | 10.0 | 0.00 | 0.94 | 0.94 | 81 | 1003.7 |
| 20260504020049 | 39 | 296 | 1.0 | 6.0 | 0.00 | 0.94 | 0.94 | 81 | 1003.8 |
| 20260504014548 | 41 | 319 | 0.0 | 8.0 | 0.00 | 0.94 | 0.94 | 79 | 1003.5 |
| 20260504013048 | 41 | 312 | 2.0 | 13.0 | 0.00 | 0.94 | 0.94 | 83 | 1003.3 |
| 20260504011546 | 40 | 301 | 1.0 | 7.0 | 0.00 | 0.94 | 0.94 | 90 | 1003.1 |
| 20260504010043 | 40 | 315 | 0.0 | 4.0 | 0.00 | 0.94 | 0.94 | 89 | 1003.0 |
| 20260504004547 | 41 | 316 | 0.0 | 0.0 | 0.00 | 0.94 | 0.94 | 89 | 1002.7 |
| 20260504003046 | 42 | 316 | 0.0 | 0.0 | 0.00 | 0.94 | 0.94 | 89 | 1002.4 |
| 20260504001545 | 42 | 313 | 1.0 | 4.0 | 0.00 | 0.94 | 0.94 | 89 | 1002.2 |
| 20260504000111 | 43 | 311 | 1.0 | 5.0 | 0.00 | 0.94 | 0.94 | 88 | 1002.0 |
| 20260503234550 | 43 | 323 | 0.0 | 4.0 | 0.00 | 0.94 | 0.94 | 87 | 1001.9 |
| 20260503233041 | 44 | 326 | 1.0 | 7.0 | 0.00 | 0.94 | 0.94 | 87 | 1001.6 |
| 20260503231539 | 44 | 343 | 3.0 | 6.0 | 0.00 | 0.94 | 0.94 | 86 | 1001.5 |
| 20260503230038 | 44 | 344 | 4.0 | 9.0 | 0.00 | 0.94 | 0.94 | 85 | 1001.2 |
| 20260503224538 | 44 | 337 | 3.0 | 12.0 | 0.00 | 0.94 | 0.94 | 85 | 1001.2 |
| 20260503223040 | 44 | 351 | 3.0 | 14.0 | 0.00 | 0.94 | 0.94 | 86 | 1001.0 |